Time,TemperatureF,DewpointF,PressureIn,WindDirection,WindDirectionDegrees,WindSpeedMPH,WindSpeedGustMPH,Humidity,HourlyPrecipIn,Conditions,Clouds,dailyrainin,SolarRadiationWatts/m^2,SoftwareType,DateUTC
2013-04-17 00:00:00,74.9,69.0,30.13,East,91,10.0,12.0,82,0.00,,,0.00,0,Wunderground v.1.15,2013-04-17 04:00:00,
2013-04-17 00:30:00,74.3,68.4,30.13,ENE,61,10.0,12.0,82,0.00,,,0.00,0,Wunderground v.1.15,2013-04-17 04:30:00,
2013-04-17 01:00:00,73.8,68.7,30.12,ENE,75,10.0,12.0,84,0.00,,,0.00,0,Wunderground v.1.15,2013-04-17 05:00:00,
2013-04-17 01:30:00,73.3,68.5,30.12,East,100,6.0,6.0,85,0.00,,,0.00,0,Wunderground v.1.15,2013-04-17 05:30:00,
2013-04-17 02:00:00,72.8,68.0,30.12,East,82,7.0,7.0,85,0.00,,,0.00,0,Wunderground v.1.15,2013-04-17 06:00:00,
2013-04-17 02:30:00,72.5,68.1,30.10,East,97,8.0,8.0,86,0.00,,,0.00,0,Wunderground v.1.15,2013-04-17 06:30:00,
2013-04-17 03:00:00,72.0,67.9,30.10,East,90,7.0,7.0,87,0.00,,,0.00,0,Wunderground v.1.15,2013-04-17 07:00:00,
2013-04-17 03:30:00,71.7,68.0,30.10,ENE,65,6.0,6.0,88,0.00,,,0.00,0,Wunderground v.1.15,2013-04-17 07:30:00,
2013-04-17 04:00:00,71.4,67.7,30.09,NE,55,6.0,6.0,88,0.00,,,0.00,0,Wunderground v.1.15,2013-04-17 08:00:00,
2013-04-17 04:30:00,71.3,67.9,30.09,NE,42,5.0,5.0,89,0.00,,,0.00,0,Wunderground v.1.15,2013-04-17 08:30:00,
2013-04-17 05:00:00,70.9,67.5,30.08,ENE,57,5.0,7.0,89,0.00,,,0.00,0,Wunderground v.1.15,2013-04-17 09:00:00,
2013-04-17 05:30:00,70.9,67.5,30.09,ENE,71,7.0,7.0,89,0.00,,,0.00,0,Wunderground v.1.15,2013-04-17 09:30:00,
2013-04-17 06:00:00,70.2,67.1,30.09,NE,48,5.0,7.0,90,0.00,,,0.00,0,Wunderground v.1.15,2013-04-17 10:00:00,
2013-04-17 06:30:00,69.9,67.2,30.10,NE,51,5.0,9.0,91,0.00,,,0.00,0,Wunderground v.1.15,2013-04-17 10:30:00,
2013-04-17 07:00:00,70.0,67.3,30.11,ENE,59,5.0,7.0,91,0.00,,,0.00,0,Wunderground v.1.15,2013-04-17 11:00:00,
2013-04-17 07:30:00,70.6,67.5,30.12,East,82,5.0,6.0,90,0.00,,,0.00,39,Wunderground v.1.15,2013-04-17 11:30:00,
2013-04-17 08:00:00,71.4,67.7,30.12,NNE,24,5.0,9.0,88,0.00,,,0.00,72,Wunderground v.1.15,2013-04-17 12:00:00,
2013-04-17 08:30:00,72.4,68.0,30.13,ENE,74,6.0,6.0,86,0.00,,,0.00,232,Wunderground v.1.15,2013-04-17 12:30:00,
2013-04-17 09:00:00,73.1,67.6,30.12,East,90,8.0,8.0,83,0.00,,,0.00,148,Wunderground v.1.15,2013-04-17 13:00:00,
2013-04-17 09:30:00,74.5,68.3,30.12,ENE,71,7.0,7.0,81,0.00,,,0.00,485,Wunderground v.1.15,2013-04-17 13:30:00,
2013-04-17 10:00:00,76.2,68.1,30.11,East,99,7.0,7.0,76,0.00,,,0.00,504,Wunderground v.1.15,2013-04-17 14:00:00,
2013-04-17 10:30:00,76.7,67.8,30.10,ENE,76,10.0,13.0,74,0.00,,,0.00,671,Wunderground v.1.15,2013-04-17 14:30:00,
2013-04-17 11:00:00,78.3,67.7,30.10,ENE,59,10.0,10.0,70,0.00,,,0.00,707,Wunderground v.1.15,2013-04-17 15:00:00,
2013-04-17 11:30:00,78.7,66.8,30.09,East,91,10.0,10.0,67,0.00,,,0.00,766,Wunderground v.1.15,2013-04-17 15:30:00,
2013-04-17 12:00:00,80.4,66.2,30.09,ENE,63,7.0,7.0,62,0.00,,,0.00,856,Wunderground v.1.15,2013-04-17 16:00:00,
2013-04-17 12:30:00,81.3,65.6,30.07,NE,40,9.0,13.0,59,0.00,,,0.00,969,Wunderground v.1.15,2013-04-17 16:30:00,
2013-04-17 13:00:00,82.3,65.0,30.07,ENE,62,7.0,7.0,56,0.00,,,0.00,1013,Wunderground v.1.15,2013-04-17 17:00:00,
2013-04-17 13:30:00,82.4,65.1,30.06,East,101,4.0,4.0,56,0.00,,,0.00,1030,Wunderground v.1.15,2013-04-17 17:30:00,
2013-04-17 14:00:00,83.7,62.5,30.06,NE,51,7.0,7.0,49,0.00,,,0.00,979,Wunderground v.1.15,2013-04-17 18:00:00,
2013-04-17 14:30:00,84.8,62.9,30.04,NE,44,4.0,4.0,48,0.00,,,0.00,1044,Wunderground v.1.15,2013-04-17 18:30:00,
2013-04-17 15:00:00,85.3,61.6,30.04,ENE,61,4.0,4.0,45,0.00,,,0.00,926,Wunderground v.1.15,2013-04-17 19:00:00,
2013-04-17 15:30:00,86.0,63.4,30.02,East,81,3.0,3.0,47,0.00,,,0.00,874,Wunderground v.1.15,2013-04-17 19:30:00,
2013-04-17 16:00:00,86.4,62.5,30.01,ENE,68,4.0,4.0,45,0.00,,,0.00,879,Wunderground v.1.15,2013-04-17 20:00:00,
2013-04-17 16:30:00,81.7,67.9,30.00,WSW,245,3.0,7.0,63,0.00,,,0.00,592,Wunderground v.1.15,2013-04-17 20:30:00,
2013-04-17 17:00:00,80.5,69.4,30.01,WSW,238,10.0,10.0,69,0.00,,,0.00,742,Wunderground v.1.15,2013-04-17 21:00:00,
2013-04-17 17:30:00,81.5,66.8,30.00,WSW,239,10.0,10.0,61,0.00,,,0.00,471,Wunderground v.1.15,2013-04-17 21:30:00,
2013-04-17 18:00:00,79.4,71.6,30.00,WSW,244,9.0,9.0,77,0.00,,,0.00,227,Wunderground v.1.15,2013-04-17 22:00:00,
2013-04-17 18:30:00,78.5,72.5,30.01,WSW,257,9.0,9.0,82,0.00,,,0.00,248,Wunderground v.1.15,2013-04-17 22:30:00,
2013-04-17 19:00:00,79.4,71.2,30.01,WSW,255,5.0,5.0,76,0.00,,,0.00,79,Wunderground v.1.15,2013-04-17 23:00:00,
2013-04-17 19:30:00,79.3,71.5,30.01,West,261,1.0,1.0,77,0.00,,,0.00,53,Wunderground v.1.15,2013-04-17 23:30:00,
2013-04-17 20:00:00,78.8,69.4,30.01,West,261,0.0,0.0,73,0.00,,,0.00,0,Wunderground v.1.15,2013-04-18 00:00:00,
2013-04-17 20:30:00,79.9,69.7,30.02,West,261,0.0,0.0,71,0.00,,,0.00,0,Wunderground v.1.15,2013-04-18 00:30:00,
2013-04-17 21:00:00,80.7,64.1,30.02,East,84,5.0,5.0,57,0.00,,,0.00,0,Wunderground v.1.15,2013-04-18 01:00:00,
2013-04-17 21:30:00,79.5,64.4,30.04,East,88,9.0,9.0,60,0.00,,,0.00,0,Wunderground v.1.15,2013-04-18 01:30:00,
2013-04-17 22:00:00,78.2,65.5,30.05,East,86,10.0,10.0,65,0.00,,,0.00,0,Wunderground v.1.15,2013-04-18 02:00:00,
2013-04-17 22:30:00,76.9,65.5,30.05,East,97,12.0,12.0,68,0.00,,,0.00,0,Wunderground v.1.15,2013-04-18 02:30:00,
2013-04-17 23:00:00,76.0,65.9,30.06,East,98,11.0,11.0,71,0.00,,,0.00,0,Wunderground v.1.15,2013-04-18 03:00:00,
2013-04-17 23:30:00,75.1,65.9,30.04,ENE,78,13.0,15.0,73,0.00,,,0.00,0,Wunderground v.1.15,2013-04-18 03:30:00,